Time,TemperatureF,DewpointF,PressureIn,WindDirection,WindDirectionDegrees,WindSpeedMPH,WindSpeedGustMPH,Humidity,HourlyPrecipIn,Conditions,Clouds,dailyrainin,SoftwareType,DateUTC
2013-04-13 00:02:00,27.0,25.0,-100.00,WNW,300,9.0,13.0,96,0.00,,,0.00,,2013-04-13 05:02:00,
2013-04-13 00:12:00,27.0,27.0,-100.00,NW,305,12.0,14.0,96,0.00,,,0.00,,2013-04-13 05:12:00,
2013-04-13 00:22:00,27.0,25.0,-100.00,WNW,300,8.0,12.0,96,0.00,,,0.00,,2013-04-13 05:22:00,
2013-04-13 00:32:00,26.0,25.0,-100.00,WNW,300,9.0,12.0,96,0.00,,,0.00,,2013-04-13 05:32:00,
2013-04-13 00:42:00,27.0,27.0,-100.00,NW,310,9.0,12.0,96,0.00,,,0.00,,2013-04-13 05:42:00,
2013-04-13 00:52:00,27.0,27.0,-100.00,NW,315,9.0,12.0,96,0.00,,,0.00,,2013-04-13 05:52:00,
2013-04-13 01:02:00,27.0,27.0,-100.00,NW,310,10.0,12.0,96,0.00,,,0.00,,2013-04-13 06:02:00,
2013-04-13 01:12:00,27.0,27.0,-100.00,NW,305,10.0,12.0,96,0.00,,,0.00,,2013-04-13 06:12:00,
2013-04-13 01:23:00,28.0,27.0,-100.00,NW,305,11.0,14.0,96,0.00,,,0.00,,2013-04-13 06:23:00,
2013-04-13 01:34:00,28.0,27.0,-100.00,NW,305,12.0,17.0,96,0.00,,,0.00,,2013-04-13 06:34:00,
2013-04-13 01:45:00,28.0,27.0,-100.00,NW,315,14.0,17.0,95,0.00,,,0.00,,2013-04-13 06:45:00,
2013-04-13 01:53:00,28.0,27.0,-100.00,NW,315,14.0,19.0,95,0.00,,,0.00,,2013-04-13 06:53:00,
2013-04-13 02:05:00,28.0,27.0,-100.00,NW,315,15.0,19.0,95,0.00,,,0.00,,2013-04-13 07:05:00,
2013-04-13 02:14:00,28.0,27.0,-100.00,NW,315,12.0,21.0,94,0.00,,,0.00,,2013-04-13 07:14:00,
2013-04-13 02:23:00,28.0,27.0,-100.00,NW,320,16.0,19.0,94,0.00,,,0.00,,2013-04-13 07:23:00,
2013-04-13 02:34:00,27.0,27.0,-100.00,NW,310,11.0,17.0,94,0.00,,,0.00,,2013-04-13 07:34:00,
2013-04-13 02:44:00,27.0,27.0,-100.00,NW,305,15.0,19.0,94,0.00,,,0.00,,2013-04-13 07:44:00,
2013-04-13 02:54:00,27.0,25.0,-100.00,WNW,300,15.0,21.0,94,0.00,,,0.00,,2013-04-13 07:54:00,
2013-04-13 03:14:00,27.0,25.0,-100.00,NW,310,12.0,17.0,94,0.00,,,0.00,,2013-04-13 08:14:00,
2013-04-13 03:24:00,27.0,27.0,-100.00,WNW,300,12.0,17.0,94,0.00,,,0.00,,2013-04-13 08:24:00,
2013-04-13 03:34:00,27.0,27.0,-100.00,WNW,300,12.0,14.0,94,0.00,,,0.00,,2013-04-13 08:34:00,
2013-04-13 03:53:00,27.0,27.0,-100.00,WNW,300,12.0,19.0,94,0.00,,,0.00,,2013-04-13 08:53:00,
2013-04-13 04:04:00,27.0,27.0,-100.00,WNW,290,12.0,15.0,94,0.00,,,0.00,,2013-04-13 09:04:00,
2013-04-13 04:14:00,27.0,25.0,-100.00,WNW,295,12.0,16.0,94,0.00,,,0.00,,2013-04-13 09:14:00,
2013-04-13 04:24:00,27.0,25.0,-100.00,WNW,285,11.0,14.0,94,0.00,,,0.00,,2013-04-13 09:24:00,
2013-04-13 04:35:00,27.0,25.0,-100.00,WNW,295,10.0,13.0,95,0.00,,,0.00,,2013-04-13 09:35:00,
2013-04-13 04:47:00,27.0,25.0,-100.00,WNW,290,9.0,12.0,95,0.00,,,0.00,,2013-04-13 09:47:00,
2013-04-13 04:53:00,27.0,25.0,-100.00,WNW,290,11.0,12.0,95,0.00,,,0.00,,2013-04-13 09:53:00,
2013-04-13 05:04:00,27.0,25.0,-100.00,West,280,10.0,13.0,95,0.00,,,0.00,,2013-04-13 10:04:00,
2013-04-13 05:15:00,27.0,25.0,-100.00,WNW,290,11.0,14.0,95,0.00,,,0.00,,2013-04-13 10:15:00,
2013-04-13 05:24:00,27.0,25.0,-100.00,WNW,295,12.0,16.0,95,0.00,,,0.00,,2013-04-13 10:24:00,
2013-04-13 05:35:00,27.0,27.0,-100.00,NW,310,10.0,14.0,95,0.00,,,0.00,,2013-04-13 10:35:00,
2013-04-13 05:45:00,27.0,27.0,-100.00,NW,305,10.0,12.0,95,0.00,,,0.00,,2013-04-13 10:45:00,
2013-04-13 05:53:00,27.0,27.0,-100.00,NW,315,9.0,13.0,95,0.00,,,0.00,,2013-04-13 10:53:00,
2013-04-13 06:05:00,27.0,27.0,-100.00,NW,305,9.0,14.0,95,0.00,,,0.00,,2013-04-13 11:05:00,
2013-04-13 06:13:00,27.0,27.0,-100.00,NW,305,9.0,14.0,95,0.00,,,0.00,,2013-04-13 11:13:00,
2013-04-13 06:23:00,27.0,27.0,-100.00,WNW,295,10.0,12.0,95,0.00,,,0.00,,2013-04-13 11:23:00,
2013-04-13 06:33:00,27.0,27.0,-100.00,NW,305,11.0,14.0,95,0.00,,,0.00,,2013-04-13 11:33:00,
2013-04-13 06:44:00,27.0,27.0,-100.00,NW,305,11.0,14.0,95,0.00,,,0.00,,2013-04-13 11:44:00,
2013-04-13 06:53:00,27.0,27.0,-100.00,NW,310,9.0,12.0,95,0.00,,,0.00,,2013-04-13 11:53:00,
2013-04-13 07:14:00,27.0,27.0,-100.00,WNW,300,9.0,12.0,95,0.00,,,0.00,,2013-04-13 12:14:00,
2013-04-13 07:24:00,27.0,27.0,-100.00,WNW,300,8.0,11.0,95,0.00,,,0.00,,2013-04-13 12:24:00,
2013-04-13 07:35:00,27.0,27.0,-100.00,NW,310,9.0,11.0,95,0.00,,,0.00,,2013-04-13 12:35:00,
2013-04-13 07:45:00,27.0,27.0,-100.00,NW,315,11.0,14.0,95,0.00,,,0.00,,2013-04-13 12:45:00,
2013-04-13 07:53:00,27.0,25.0,-100.00,NW,305,12.0,15.0,94,0.00,,,0.00,,2013-04-13 12:53:00,
2013-04-13 08:05:00,27.0,25.0,-100.00,NW,305,13.0,15.0,94,0.00,,,0.00,,2013-04-13 13:05:00,
2013-04-13 08:14:00,27.0,25.0,-100.00,WNW,300,9.0,16.0,93,0.00,,,0.00,,2013-04-13 13:14:00,
2013-04-13 08:33:00,27.0,25.0,-100.00,WNW,300,9.0,14.0,92,0.00,,,0.00,,2013-04-13 13:33:00,
2013-04-13 08:45:00,27.0,25.0,-100.00,NW,305,9.0,12.0,92,0.00,,,0.00,,2013-04-13 13:45:00,
2013-04-13 08:53:00,28.0,25.0,-100.00,WNW,295,11.0,14.0,91,0.00,,,0.00,,2013-04-13 13:53:00,
2013-04-13 09:04:00,27.0,25.0,-100.00,NW,305,11.0,15.0,91,0.00,,,0.00,,2013-04-13 14:04:00,
2013-04-13 09:13:00,28.0,25.0,-100.00,WNW,300,12.0,14.0,90,0.00,,,0.00,,2013-04-13 14:13:00,
2013-04-13 09:23:00,28.0,25.0,-100.00,NW,315,11.0,16.0,88,0.00,,,0.00,,2013-04-13 14:23:00,
2013-04-13 09:35:00,28.0,25.0,-100.00,NW,310,11.0,17.0,87,0.00,,,0.00,,2013-04-13 14:35:00,
2013-04-13 09:45:00,28.0,25.0,-100.00,NW,305,12.0,16.0,86,0.00,,,0.00,,2013-04-13 14:45:00,
2013-04-13 09:54:00,28.0,25.0,-100.00,NW,310,11.0,16.0,85,0.00,,,0.00,,2013-04-13 14:54:00,
2013-04-13 10:04:00,28.0,25.0,-100.00,NW,305,11.0,15.0,85,0.00,,,0.00,,2013-04-13 15:04:00,
2013-04-13 10:14:00,28.0,25.0,-100.00,NW,315,11.0,14.0,84,0.00,,,0.00,,2013-04-13 15:14:00,
2013-04-13 10:27:00,29.0,23.0,-100.00,NW,315,9.0,16.0,82,0.00,,,0.00,,2013-04-13 15:27:00,
2013-04-13 10:35:00,29.0,23.0,-100.00,NW,320,9.0,12.0,79,0.00,,,0.00,,2013-04-13 15:35:00,
2013-04-13 10:43:00,29.0,25.0,-100.00,West,280,9.0,11.0,80,0.00,,,0.00,,2013-04-13 15:43:00,
2013-04-13 11:05:00,29.0,25.0,-100.00,WNW,300,9.0,12.0,80,0.00,,,0.00,,2013-04-13 16:05:00,
2013-04-13 11:14:00,30.0,25.0,-100.00,NW,305,9.0,12.0,80,0.00,,,0.00,,2013-04-13 16:14:00,
2013-04-13 11:24:00,31.0,23.0,-100.00,NW,305,11.0,12.0,75,0.00,,,0.00,,2013-04-13 16:24:00,
2013-04-13 11:35:00,31.0,23.0,-100.00,WNW,295,9.0,12.0,74,0.00,,,0.00,,2013-04-13 16:35:00,
2013-04-13 11:53:00,31.0,23.0,-100.00,WNW,295,10.0,12.0,74,0.00,,,0.00,,2013-04-13 16:53:00,
2013-04-13 12:05:00,32.0,25.0,-100.00,WNW,295,10.0,12.0,72,0.00,,,0.00,,2013-04-13 17:05:00,
2013-04-13 12:20:00,32.0,23.0,-100.00,West,280,9.0,12.0,71,0.00,,,0.00,,2013-04-13 17:20:00,
2013-04-13 12:37:00,33.0,23.0,-100.00,WNW,300,8.0,12.0,68,0.00,,,0.00,,2013-04-13 17:37:00,
2013-04-13 12:43:00,34.0,23.0,-100.00,NW,305,9.0,11.0,65,0.00,,,0.00,,2013-04-13 17:43:00,
2013-04-13 12:57:00,34.0,23.0,-100.00,WNW,290,8.0,11.0,63,0.00,,,0.00,,2013-04-13 17:57:00,
2013-04-13 13:05:00,34.0,23.0,-100.00,WNW,290,9.0,11.0,63,0.00,,,0.00,,2013-04-13 18:05:00,
2013-04-13 13:14:00,34.0,23.0,-100.00,West,275,8.0,11.0,64,0.00,,,0.00,,2013-04-13 18:14:00,
2013-04-13 13:24:00,34.0,23.0,-100.00,West,280,9.0,11.0,62,0.00,,,0.00,,2013-04-13 18:24:00,
2013-04-13 13:32:00,34.0,23.0,-100.00,WNW,290,9.0,12.0,63,0.00,,,0.00,,2013-04-13 18:32:00,
2013-04-13 13:42:00,34.0,21.0,-100.00,WNW,300,8.0,10.0,60,0.00,,,0.00,,2013-04-13 18:42:00,
2013-04-13 13:52:00,35.0,21.0,-100.00,West,280,6.0,11.0,58,0.00,,,0.00,,2013-04-13 18:52:00,
2013-04-13 14:03:00,36.0,21.0,-100.00,WNW,295,7.0,9.0,55,0.00,,,0.00,,2013-04-13 19:03:00,
2013-04-13 14:12:00,36.0,21.0,-100.00,West,265,6.0,9.0,53,0.00,,,0.00,,2013-04-13 19:12:00,
2013-04-13 14:22:00,36.0,21.0,-100.00,NW,310,6.0,9.0,53,0.00,,,0.00,,2013-04-13 19:22:00,
2013-04-13 14:32:00,35.0,21.0,-100.00,NNW,335,6.0,10.0,56,0.00,,,0.00,,2013-04-13 19:32:00,
2013-04-13 14:42:00,35.0,21.0,-100.00,NW,320,5.0,9.0,56,0.00,,,0.00,,2013-04-13 19:42:00,
2013-04-13 14:52:00,36.0,21.0,-100.00,NW,320,5.0,9.0,53,0.00,,,0.00,,2013-04-13 19:52:00,
2013-04-13 15:02:00,37.0,21.0,-100.00,WNW,300,4.0,7.0,53,0.00,,,0.00,,2013-04-13 20:02:00,
2013-04-13 15:12:00,38.0,21.0,-100.00,WNW,285,4.0,6.0,52,0.00,,,0.00,,2013-04-13 20:12:00,
2013-04-13 15:22:00,36.0,21.0,-100.00,West,275,6.0,9.0,53,0.00,,,0.00,,2013-04-13 20:22:00,
2013-04-13 15:32:00,36.0,21.0,-100.00,North,355,5.0,9.0,53,0.00,,,0.00,,2013-04-13 20:32:00,
2013-04-13 15:42:00,33.0,19.0,-100.00,North,0,4.0,6.0,57,0.00,,,0.00,,2013-04-13 20:42:00,
2013-04-13 15:52:00,33.0,21.0,-100.00,NNW,335,4.0,7.0,59,0.00,,,0.00,,2013-04-13 20:52:00,
2013-04-13 16:02:00,33.0,21.0,-100.00,NW,325,6.0,7.0,59,0.00,,,0.00,,2013-04-13 21:02:00,
2013-04-13 16:12:00,35.0,21.0,-100.00,NNW,340,3.0,6.0,57,0.00,,,0.00,,2013-04-13 21:12:00,
2013-04-13 16:22:00,38.0,23.0,-100.00,NW,310,2.0,4.0,52,0.00,,,0.00,,2013-04-13 21:22:00,
2013-04-13 16:32:00,40.0,21.0,-100.00,NW,310,1.0,2.0,47,0.00,,,0.00,,2013-04-13 21:32:00,
2013-04-13 16:43:00,42.0,21.0,-100.00,West,265,1.0,2.0,44,0.00,,,0.00,,2013-04-13 21:43:00,
2013-04-13 16:52:00,44.0,21.0,-100.00,ENE,75,0.0,1.0,41,0.00,,,0.00,,2013-04-13 21:52:00,
2013-04-13 17:03:00,41.0,19.0,-100.00,NE,45,1.0,3.0,41,0.00,,,0.00,,2013-04-13 22:03:00,
2013-04-13 17:12:00,39.0,18.0,-100.00,North,10,2.0,3.0,43,0.00,,,0.00,,2013-04-13 22:12:00,
2013-04-13 17:22:00,40.0,19.0,-100.00,NNW,335,2.0,5.0,44,0.00,,,0.00,,2013-04-13 22:22:00,
2013-04-13 17:33:00,36.0,18.0,-100.00,NNE,30,2.0,6.0,47,0.00,,,0.00,,2013-04-13 22:33:00,
2013-04-13 17:42:00,34.0,18.0,-100.00,North,5,4.0,5.0,50,0.00,,,0.00,,2013-04-13 22:42:00,
2013-04-13 17:52:00,34.0,19.0,-100.00,NNE,25,4.0,6.0,52,0.00,,,0.00,,2013-04-13 22:52:00,
2013-04-13 18:02:00,33.0,19.0,-100.00,NNE,25,4.0,6.0,55,0.00,,,0.00,,2013-04-13 23:02:00,
2013-04-13 18:12:00,34.0,19.0,-100.00,NE,45,4.0,7.0,55,0.00,,,0.00,,2013-04-13 23:12:00,
2013-04-13 18:22:00,34.0,19.0,-100.00,ENE,65,3.0,6.0,55,0.00,,,0.00,,2013-04-13 23:22:00,
2013-04-13 18:32:00,33.0,19.0,-100.00,ENE,60,4.0,7.0,56,0.00,,,0.00,,2013-04-13 23:32:00,
2013-04-13 18:41:00,34.0,19.0,-100.00,ENE,70,4.0,4.0,57,0.00,,,0.00,,2013-04-13 23:41:00,
2013-04-13 18:52:00,33.0,19.0,-100.00,NE,45,4.0,6.0,57,0.00,,,0.00,,2013-04-13 23:52:00,
2013-04-13 19:02:00,34.0,19.0,-100.00,NE,45,2.0,4.0,56,0.00,,,0.00,,2013-04-14 00:02:00,
2013-04-13 19:12:00,34.0,19.0,-100.00,ENE,70,3.0,4.0,57,0.00,,,0.00,,2013-04-14 00:12:00,
2013-04-13 19:22:00,34.0,21.0,-100.00,East,80,2.0,6.0,57,0.00,,,0.00,,2013-04-14 00:22:00,
2013-04-13 19:32:00,34.0,19.0,-100.00,East,85,2.0,4.0,57,0.00,,,0.00,,2013-04-14 00:32:00,
2013-04-13 19:42:00,33.0,19.0,-100.00,East,85,4.0,9.0,58,0.00,,,0.00,,2013-04-14 00:42:00,
2013-04-13 19:52:00,33.0,21.0,-100.00,East,80,6.0,9.0,62,0.00,,,0.00,,2013-04-14 00:52:00,
2013-04-13 20:02:00,32.0,21.0,-100.00,ENE,75,7.0,11.0,64,0.00,,,0.00,,2013-04-14 01:02:00,
2013-04-13 20:12:00,32.0,21.0,-100.00,South,180,6.0,11.0,65,0.00,,,0.00,,2013-04-14 01:12:00,
2013-04-13 20:22:00,32.0,21.0,-100.00,ESE,115,4.0,8.0,66,0.00,,,0.00,,2013-04-14 01:22:00,
2013-04-13 20:32:00,32.0,23.0,-100.00,South,175,5.0,7.0,68,0.00,,,0.00,,2013-04-14 01:32:00,
2013-04-13 20:42:00,32.0,23.0,-100.00,SSE,150,2.0,5.0,70,0.00,,,0.00,,2013-04-14 01:42:00,
2013-04-13 20:52:00,31.0,23.0,-100.00,SE,135,2.0,2.0,70,0.00,,,0.00,,2013-04-14 01:52:00,
2013-04-13 21:02:00,31.0,23.0,-100.00,SSE,150,1.0,3.0,71,0.00,,,0.00,,2013-04-14 02:02:00,
2013-04-13 21:12:00,31.0,23.0,-100.00,SE,135,2.0,4.0,71,0.00,,,0.00,,2013-04-14 02:12:00,
2013-04-13 21:22:00,31.0,23.0,-100.00,ESE,120,4.0,6.0,72,0.00,,,0.00,,2013-04-14 02:22:00,
2013-04-13 21:32:00,31.0,23.0,-100.00,SE,145,4.0,7.0,73,0.00,,,0.00,,2013-04-14 02:32:00,
2013-04-13 21:42:00,31.0,23.0,-100.00,ESE,115,3.0,4.0,74,0.00,,,0.00,,2013-04-14 02:42:00,
2013-04-13 21:52:00,31.0,23.0,-100.00,ESE,110,4.0,6.0,74,0.00,,,0.00,,2013-04-14 02:52:00,
2013-04-13 22:02:00,30.0,23.0,-100.00,SSE,160,4.0,6.0,74,0.00,,,0.00,,2013-04-14 03:02:00,
2013-04-13 22:12:00,30.0,23.0,-100.00,SE,140,4.0,7.0,78,0.00,,,0.00,,2013-04-14 03:12:00,
2013-04-13 22:22:00,29.0,25.0,-100.00,ESE,120,4.0,6.0,80,0.00,,,0.00,,2013-04-14 03:22:00,
2013-04-13 22:33:00,29.0,23.0,-100.00,East,95,3.0,4.0,81,0.00,,,0.00,,2013-04-14 03:33:00,
2013-04-13 22:42:00,29.0,25.0,-100.00,ESE,105,4.0,5.0,81,0.00,,,0.00,,2013-04-14 03:42:00,
2013-04-13 22:53:00,29.0,25.0,-100.00,SE,125,4.0,5.0,82,0.00,,,0.00,,2013-04-14 03:53:00,
2013-04-13 23:02:00,29.0,25.0,-100.00,ESE,115,4.0,7.0,82,0.00,,,0.00,,2013-04-14 04:02:00,
2013-04-13 23:12:00,29.0,25.0,-100.00,East,100,6.0,7.0,82,0.00,,,0.00,,2013-04-14 04:12:00,
2013-04-13 23:23:00,30.0,25.0,-100.00,ESE,105,6.0,8.0,82,0.00,,,0.00,,2013-04-14 04:23:00,
2013-04-13 23:32:00,30.0,25.0,-100.00,ESE,110,6.0,9.0,81,0.00,,,0.00,,2013-04-14 04:32:00,
2013-04-13 23:42:00,30.0,25.0,-100.00,ESE,105,6.0,8.0,81,0.00,,,0.00,,2013-04-14 04:42:00,
2013-04-13 23:52:00,30.0,25.0,-100.00,East,100,6.0,8.0,80,0.00,,,0.00,,2013-04-14 04:52:00,